Regional Weather Roundup
Issued by NWS

Home | Current Version | Previous Version | Text Only | Print | Product List | Glossary Off
Versions: 1 2 3 4 5 6 7 8 9 10 11 12 13 14 15 16 17 18 19 20 21 22 23 24 25 26 27 28 29 30 31 32 33 34 35 36 37 38 39 40 41 42 43 44 45 46 47 48 49 50

000
ASUS45 KABQ 072110
RWRNM
NEW MEXICO REGIONAL WEATHER ROUNDUP
NATIONAL WEATHER SERVICE ALBUQUERQUE NM
200 PM MST SUN FEB 07 2016

NOTE: "FAIR" MEANS FEW OR NO CLOUDS BELOW 12,000 FEET AGL WITH NO
       SIGNIFICANT WEATHER OR OBSTRUCTIONS TO VISION.

      THIS PRODUCT IS RELEASED AS TWO VERSIONS.  ONE VERSION NEAR
      THE TOP OF THE HOUR CONTAINING PRELIMINARY DATA FROM ALBUQUERQUE
      AND OTHER STATIONS.  A FINAL VERSION WITH ADDITIONAL DATA IS
      ISSUED ABOUT 10 MINUTES AFTER THE HOUR.

NMZ501-503-504-510>518-072200-
NORTHWEST PLATEAU/NORTHCENTRAL MOUNTAINS

CITY           SKY/WX    TMP DP  RH WIND       PRES   REMARKS
FARMINGTON     SUNNY     41  20  43 CALM      30.36F
LOS ALAMOS     MOSUNNY   43  16  33 E3        30.31F
SANTA FE       SUNNY     51  14  22 N14       30.27F
TAOS           CLOUDY    41  16  36 CALM      30.32F
ANGEL FIRE     FAIR      27  18  68 NE9       30.29F WCI  18

$$
NMZ402-403-502-505>509-072200-
WESTCENTRAL MOUNTAINS/SOUTHWEST MOUNTAINS

CITY           SKY/WX    TMP DP  RH WIND       PRES   REMARKS
GALLUP         SUNNY     53  18  25 NE7       30.36F
GRANTS         SUNNY     56  10  16 NW18G25   30.36F
SILVER CITY      N/A     63   7  11 S5        30.27F

$$
NMZ407-409-411-412-072200-
SOUTHERN DESERTS

CITY           SKY/WX    TMP DP  RH WIND       PRES   REMARKS
LORDSBURG      FAIR      61  12  15 S5        30.24F
DEMING         MOSUNNY   64  11  12 VRB6      30.24F
LAS CRUCES     SUNNY     63  11  13 N8        30.24F
HOLLOMAN AFB   SUNNY     64  13  13 NW15G25   30.20F
ALAMOGORDO     SUNNY     64  12  13 N16G23    30.21F
T OR C         SUNNY     61  13  15 NE10      30.24F

$$
NMZ519>523-072200-
CENTRAL VALLEYS/CENTRAL HIGHLANDS

CITY           SKY/WX    TMP DP  RH WIND       PRES   REMARKS
ALBUQUERQUE    MOSUNNY   54  15  21 NW18G24   30.30F
DOUBLE EAGLE   MOSUNNY   54  19  26 NW14      30.31F
MORIARTY ARPT  FAIR      55  16  22 W16       30.27F
CLINES CORNERS SUNNY     46  20  35 NW17      30.24F
BELEN          FAIR      56  13  18 N5        30.30F
SOCORRO        FAIR      57  13  17 N15       30.28F

$$
NMZ524>526-539-540-072200-
SOUTHCENTRAL MOUNTAINS

CITY           SKY/WX    TMP DP  RH WIND       PRES   REMARKS
RUIDOSO        SUNNY     55  12  18 NW8G20    30.29S

$$
NMZ527>531-072200-
NORTHEAST HIGHLANDS/NORTHEAST PLAINS

CITY           SKY/WX    TMP DP  RH WIND       PRES   REMARKS
LAS VEGAS      CLOUDY    49  23  36 S12       30.23F
RATON          SUNNY     55  14  19 S8        30.20S
CLAYTON        SUNNY     53  18  25 NE10      30.23F

$$
NMZ532>537-072200-
EASTCENTRAL PLAINS

CITY           SKY/WX    TMP DP  RH WIND       PRES   REMARKS
TUCUMCARI      CLOUDY    60  18  19 NE9       30.20F
CANNON AFB     SUNNY     60  18  20 NE13      30.19F
CLOVIS AIRPORT CLOUDY    59  19  21 NE8       30.21F

$$
NMZ028-029-538-072200-
SOUTHEAST PLAINS

CITY           SKY/WX    TMP DP  RH WIND       PRES   REMARKS
ROSWELL        SUNNY     65  17  15 NE18      30.17F
ARTESIA        SUNNY     66  19  16 N20G26    30.17S
CARLSBAD       SUNNY     69  17  13 N14       30.14F
HOBBS          SUNNY     66  16  14 N14G23    30.16F


$$



USA.gov is the U.S. government's official web portal to all federal, state and local government web resources and services.